THORAD DELTA 1 DEB, 8169

Orbit data source: Space-Track

THORAD DELTA 1 DEB, 8169 is space debris in SSO originally from a launch on Fri, 15 Nov 1974 UTC launched from the Air Force Western Test Range (AFWTR). Debris objects in space refer to the collection of defunct objects orbiting the Earth. Examples of debris include non-operational satellites, rocket bodies, and fragments generated from explosions, collisions, or faulty payload assembly.

Loading next visibility...
THORAD DELTA 1 DEB details
Identifier
8169, 1974-089AK
Orbit
SSO
Last TLE update19 hours ago
Origin
Flag of USGSFC (US)
ManufacturerUnknown
MissionSpacecraft
Bus & MotorUnknown
MassUnknown
Launch date (UTC)
1974-11-15 (50 years ago)
Launch vehicleUnknown
Launch site
Air Force Western Test Range (AFWTR)
Object type
Payload
Rocket body
Debris
Shape & HBRUnknown
Radar Cross SectionSmall (<0.1 m²)

Expand to show TLE details & history

TLE from 19 hours ago
0 THORAD DELTA 1 DEB
1  8169U 74089AK  24360.66754229  .00001837  00000-0  67133-2 0  9999
2  8169 102.5299 269.2288 0133742 144.5127 280.2924 12.92487396331763
Epoch: 2024-12-25T16:01Z
Definitive object data (Epoch: 2024-12-25T16:01:15.653Z)
Latitude60.79012°
Longitude-89.04165°
Altitude1,284.833 km
Speed7.227 km/s
True Right ascension16h 23m 43s
True Declination60° 39' 13"
Sunlit
Object was in daylight at TLE epoch
Visualization TLE readout
Latitude21.02917°
Longitude120.0314°
Altitude1,195.005 km
Speed7.305 km/s
Apparent Right ascension03h 30m 53s
Apparent Declination-12° 03' 51"
Sunlit
Object is in full shadow
Visualization observer readout
Local Sidereal Time10:26:01
Azimuth269.349° W
Elevation-18.23°
Doppler factor1
Orbital elements
Apogee altitude1,391.751 km
Perigee altitude1,186.662 km
Semi-major axis7,667.343 km
Eccentricity0.0133742
Inclination102.5299°
RAAN269.2288°
Arg. of periapsis144.5127°
True anomaly278.78015°
Mean anomaly280.2924°
Eccentric anomaly279.53671°
Mean motion3.23278 °/min
BSTAR0.0067133
Orbital period111.36 mins
Loading maneuver chart data...

THORAD DELTA 1 DEB Visibility forecast

Observer location: undefined°, undefined

Span
Click to sort rows by Start time (UTC) header in descending order
Start Az.
Max El. time (UTC)
Max El. Az.
Max El.
End time (UTC)
End Az.
9 mins2024-12-26 16:01:44.128Z92.104° ESE2024-12-26 16:06:44.128Z49.551° ENE18.373°2024-12-26 16:10:44.128Z14.582° NNE
13 mins2024-12-26 17:48:44.128Z158.333° S2024-12-26 17:54:44.128Z124.202° SE44.954°2024-12-26 18:01:44.128Z342.136° N
7 mins2024-12-26 19:41:44.128Z238.668° WSW2024-12-26 19:44:44.128Z264.479° W16.34°2024-12-26 19:48:44.128Z298.832° NW
5 mins2024-12-27 05:32:44.128Z74.744° E2024-12-27 05:34:44.128Z93.568° ESE14.613°2024-12-27 05:37:44.128Z120.663° SE
12 mins2024-12-27 07:19:44.128Z17.604° NNE2024-12-27 07:24:44.128Z331.898° NNW44.939°2024-12-27 07:31:44.128Z201.862° SSW
6 mins2024-12-27 09:10:44.128Z333.164° NNW2024-12-27 09:12:44.128Z313.992° NW16.616°2024-12-27 09:16:44.128Z276.299° WNW
|